Flaming Gorge Reservoir Weather Center

Moon Phase Calendar



Flaming Gorge Reservoir Water Level
Online Cameras

 


      

Current Conditions in Manila
3/4/2024 3:45:16 AM

13°F
Feels Like 6
Clouds
Humidity
87%
Pressure
30.06"
Wind
4.5 mph (SE)
Dew Point
11°F
UV Index
0/10 (Low)
Visibility
6 mi

Hourly Forecast

Date & Time Mon, Mar 4
3:00 AM
Mon, Mar 4
4:00 AM
Mon, Mar 4
5:00 AM
Mon, Mar 4
6:00 AM
Mon, Mar 4
7:00 AM
Mon, Mar 4
8:00 AM
Mon, Mar 4
9:00 AM
Mon, Mar 4
10:00 AM
Mon, Mar 4
11:00 AM
Mon, Mar 4
12:00 PM
Mon, Mar 4
1:00 PM
Mon, Mar 4
2:00 PM
Mon, Mar 4
3:00 PM
Mon, Mar 4
4:00 PM
Mon, Mar 4
5:00 PM
Mon, Mar 4
6:00 PM
Mon, Mar 4
7:00 PM
Mon, Mar 4
8:00 PM
Mon, Mar 4
9:00 PM
Mon, Mar 4
10:00 PM
Mon, Mar 4
11:00 PM
Tue, Mar 5
12:00 AM
Tue, Mar 5
1:00 AM
Tue, Mar 5
2:00 AM
Tue, Mar 5
3:00 AM
Tue, Mar 5
4:00 AM
Tue, Mar 5
5:00 AM
Tue, Mar 5
6:00 AM
Tue, Mar 5
7:00 AM
Tue, Mar 5
8:00 AM
Tue, Mar 5
9:00 AM
Tue, Mar 5
10:00 AM
Tue, Mar 5
11:00 AM
Tue, Mar 5
12:00 PM
Tue, Mar 5
1:00 PM
Tue, Mar 5
2:00 PM
Tue, Mar 5
3:00 PM
Tue, Mar 5
4:00 PM
Tue, Mar 5
5:00 PM
Tue, Mar 5
6:00 PM
Tue, Mar 5
7:00 PM
Tue, Mar 5
8:00 PM
Tue, Mar 5
9:00 PM
Tue, Mar 5
10:00 PM
Tue, Mar 5
11:00 PM
Wed, Mar 6
12:00 AM
Wed, Mar 6
1:00 AM
Wed, Mar 6
2:00 AM
Condition
Clouds

Clouds

Clouds

Clouds

Clouds

Snow

Snow

Clouds

Snow

Snow

Snow

Clouds

Clouds

Clouds

Clouds

Clouds

Clouds

Clouds

Clouds

Clouds

Clouds

Clouds

Clouds

Clouds

Clouds

Clouds

Clouds

Clouds

Clouds

Clouds

Clouds

Clouds

Clouds

Clouds

Clouds

Clouds

Clouds

Clouds

Snow

Snow

Clouds

Clouds

Clouds

Clouds

Clouds

Clouds

Clouds

Clouds
Temperature 14°F13°F14°F15°F15°F19°F24°F28°F30°F31°F31°F32°F30°F29°F27°F22°F20°F17°F17°F16°F16°F16°F17°F18°F18°F19°F19°F19°F20°F23°F27°F30°F32°F34°F35°F36°F36°F34°F33°F31°F27°F26°F25°F25°F25°F25°F25°F26°F
Feels Like 8°F6°F6°F6°F6°F10°F15°F19°F22°F21°F22°F21°F17°F16°F14°F11°F10°F10°F12°F16°F16°F16°F17°F18°F14°F14°F14°F14°F13°F16°F20°F24°F27°F30°F32°F36°F36°F34°F30°F27°F23°F22°F20°F19°F19°F19°F20°F21°F
Cloudiness 98%98%98%95%93%92%92%92%91%98%99%99%96%92%86%55%69%75%79%75%79%99%99%100%100%100%100%100%100%100%100%100%100%100%100%100%99%99%99%82%67%59%51%44%38%24%62%74%
Visibility 6 mi6 mi6 mi6 mi6 mi6 mi6 mi6 mi6 mi6 mi6 mi6 mi6 mi6 mi6 mi6 mi6 mi6 mi6 mi6 mi6 mi6 mi6 mi6 mi6 mi6 mi6 mi6 mi6 mi6 mi6 mi6 mi6 mi6 mi6 mi6 mi6 mi6 mi5 mi6 mi6 mi6 mi6 mi6 mi6 mi6 mi6 mi6 mi
Precipitation 0%0%0%8%3%42%49%49%52%49%48%43%33%28%20%0%0%0%0%0%0%0%0%0%0%0%0%0%0%0%0%0%0%0%0%0%3%6%30%28%4%0%0%0%0%0%0%0%
Humidity 86%87%88%89%90%86%76%65%60%64%59%54%60%59%61%71%78%85%88%89%88%87%84%82%81%81%81%80%80%77%70%67%65%65%65%65%67%74%85%90%90%89%88%87%88%89%88%86%
Dew Point 11°F11°F12°F13°F13°F16°F14°F14°F14°F16°F15°F14°F15°F13°F12°F11°F10°F9°F9°F9°F9°F9°F8°F9°F9°F10°F10°F10°F11°F13°F15°F17°F19°F20°F22°F22°F23°F24°F25°F25°F21°F20°F18°F18°F18°F18°F19°F19°F
Pressure 30.06"30.06"30.06"30.06"30.09"30.06"30"29.94"29.88"29.88"29.88"29.88"29.94"29.97"30.03"30.15"30.21"30.27"30.3"30.33"30.33"30.3"30.3"30.3"30.27"30.27"30.27"30.27"30.24"30.21"30.15"30.09"30.03"29.97"29.94"29.94"29.94"29.94"29.97"30"30.03"30.06"30.06"30.06"30.06"30.03"30.03"30"
Wind Speed 4 mph4.5 mph5.6 mph6.5 mph6.1 mph7.2 mph8.5 mph9.3 mph9.5 mph11.3 mph12.7 mph18.1 mph21.4 mph20.8 mph16.8 mph11.6 mph7.4 mph4.8 mph3.4 mph1.4 mph0.7 mph1.2 mph2.1 mph2.9 mph3.1 mph3.2 mph3.3 mph3.9 mph4.9 mph5.7 mph6.1 mph6 mph5.9 mph5.4 mph4.3 mph2.7 mph2 mph2.8 mph3.3 mph3.8 mph4 mph3.5 mph4 mph4.7 mph4.3 mph4.3 mph4.5 mph4.5 mph
Wind
Direction
139°
SE
138°
SE
145°
SE
158°
SSE
161°
SSE
173°
S
171°
S
198°
SSW
244°
WSW
271°
W
263°
W
277°
W
290°
WNW
295°
WNW
303°
WNW
319°
NW
327°
NNW
323°
NW
319°
NW
311°
NW
213°
SSW
144°
SE
136°
SE
137°
SE
138°
SE
137°
SE
142°
SE
145°
SE
149°
SSE
150°
SSE
154°
SSE
159°
SSE
162°
SSE
160°
SSE
151°
SSE
167°
SSE
176°
S
185°
S
159°
SSE
152°
SSE
168°
SSE
163°
SSE
167°
SSE
165°
SSE
165°
SSE
161°
SSE
165°
SSE
162°
SSE

Daily Forecast

Date High Low Precip. Humidity
Today
Mar 4

Snow
32 °F
13 °F
52%
64%
Tuesday
Mar 5

Snow
36 °F
16 °F
30%
65%
Wednesday
Mar 6

Snow
38 °F
25 °F
52%
70%
Thursday
Mar 7

Snow
38 °F
25 °F
45%
76%
Friday
Mar 8

Snow
34 °F
22 °F
55%
60%
Saturday
Mar 9

Clear
41 °F
21 °F
0%
46%
Sunday
Mar 10

Clouds
46 °F
29 °F
0%
46%
Monday
Mar 11

Clouds
49 °F
34 °F
0%
39%
Tuesday
Mar 12

Snow
43 °F
33 °F
71%
55%
Wednesday
Mar 13

Snow
40 °F
27 °F
64%
67%
Thursday
Mar 14

Clouds
49 °F
31 °F
0%
48%
Friday
Mar 15

Clouds
52 °F
37 °F
0%
39%
Saturday
Mar 16

Clouds
56 °F
36 °F
0%
39%
Sunday
Mar 17

Snow
44 °F
26 °F
37%
26%
Monday
Mar 18

Clouds
34 °F
24 °F
7%
33%
Tuesday
Mar 19

Clouds
34 °F
25 °F
23%
27%

Temperature 8-14 Day Outlook



Precipitation 8-14 Day Outlook




Quick Links
Flaming Gorge Reservoir News
Flaming Gorge Reservoir Photos
Flaming Gorge Reservoir Videos




About Us
Contact Us
Site Map
Search Site
Advertise With Us
   
FlamingGorge.USLakes.info
THE FLAMING GORGE RESERVOIR WEBSITE

Copyright 2024, Lakes Online
Privacy    |    Legal